Weather History for Pueblo, CO

Change the Weather History Date:

Saturday, August 3, 2013

  Actual Average Record
Temperature  
Mean Temperature 75 °F 75 °F  
Max Temperature 88 °F 91 °F 103 °F (1902)
Min Temperature 61 °F 59 °F 49 °F (1995)
Degree Days  
Heating Degree Days 0 0  
Month to date heating degree days 0 0  
Since 1 June heating degree days 17 26  
Since 1 July heating degree days 0 1  
Cooling Degree Days 10 10  
Month to date cooling degree days 41 30  
Year to date cooling degree days 780 575  
Since 1 June cooling degree days 707 541  
Growing Degree Days 24 (Base 50)    
Moisture  
Dew Point 60 °F    
Average Humidity 64    
Maximum Humidity 87    
Minimum Humidity 40    
Precipitation  
Precipitation 0.55 in 0.07 in 0.60 in (1948)
Month to date precipitation 0.55 0.23  
Year to date precipitation 4.43 8.14  
Snow  
Snow 0.00 in 0.00 in 0.00 in (2002)
Month to date snowfall 0.0 0.0  
Since 1 June snowfall T 0.0  
Since 1 July snowfall T 0.0  
Snow Depth 0.00 in    
Sea Level Pressure  
Sea Level Pressure 30.03 in    
Wind  
Wind Speed 11 mph (SE)    
Max Wind Speed 30 mph    
Max Gust Speed 36 mph    
Visibility 9 miles    
Events Rain , Thunderstorm    
T = Trace of Precipitation, MM = Missing Value Source: NWS Daily Summary

Daily Weather History Graph

Daily Weather History Graph

Search for Another Location

Airport:

Trip Planner

Search our weather history database for the weather conditions in past years. The results will help you decide how hot, cold, wet, or windy it might be!

Date:

Astronomy

Aug. 03, 2013 Rise Set
Actual Time 6:02 AM MDT 8:05 PM MDT
Civil Twilight 5:33 AM MDT 8:34 PM MDT
Nautical Twilight 4:57 AM MDT 9:09 PM MDT
Astronomical Twilight 4:18 AM MDT 9:48 PM MDT
Moon 3:14 AM MDT (8/3) 5:49 PM MDT (8/3)
Length of Visible Light 15h 01m
Length of Day
14h 03m
Waning Crescent, 9% of the Moon is Illuminated
Aug 3
Waning Crescent
Aug 6
New
Aug 14
First Quarter
Aug 20
Full
Aug 28
Last Quarter

Hourly Weather History & Observations

Time (MDT) Temp. Heat Index Dew Point Humidity Pressure Visibility Wind Dir Wind Speed Gust Speed Precip Events Conditions
12:53 AM 72.0 °F - 54.0 °F 53% 29.91 in 10.0 mi SSW 3.5 mph - N/A   Clear
1:53 AM 71.1 °F - 54.0 °F 55% 29.89 in 10.0 mi West 5.8 mph - N/A   Clear
2:53 AM 72.0 °F - 53.1 °F 51% 29.87 in 10.0 mi NNW 4.6 mph - N/A   Clear
3:53 AM 71.1 °F - 52.0 °F 51% 29.87 in 10.0 mi SSW 6.9 mph - N/A   Clear
4:53 AM 69.1 °F - 54.0 °F 58% 29.86 in 10.0 mi NW 8.1 mph - N/A   Clear
5:53 AM 68.0 °F - 54.0 °F 61% 29.91 in 10.0 mi South 8.1 mph - N/A   Clear
6:53 AM 70.0 °F - 54.0 °F 57% 29.92 in 10.0 mi East 6.9 mph - N/A   Clear
7:53 AM 72.0 °F - 57.0 °F 59% 29.94 in 10.0 mi SE 9.2 mph - N/A   Partly Cloudy
8:53 AM 73.0 °F - 64.0 °F 73% 29.97 in 10.0 mi SE 9.2 mph - N/A   Clear
9:53 AM 75.0 °F - 66.0 °F 73% 29.98 in 10.0 mi SSE 6.9 mph - N/A   Partly Cloudy
10:53 AM 75.9 °F - 64.9 °F 69% 29.97 in 10.0 mi SSE 6.9 mph - N/A   Partly Cloudy
11:53 AM 79.0 °F - 64.0 °F 60% 29.96 in 10.0 mi SE 5.8 mph - N/A   Clear
12:53 PM 82.9 °F 83.3 °F 61.0 °F 47% 29.94 in 10.0 mi SSE 11.5 mph 18.4 mph N/A   Clear
1:53 PM 82.9 °F 83.7 °F 62.1 °F 49% 29.93 in 10.0 mi ESE 13.8 mph - N/A   Clear
2:53 PM 86.0 °F 85.4 °F 59.0 °F 40% 29.90 in 10.0 mi ESE 18.4 mph - N/A   Clear
3:53 PM 86.0 °F 85.4 °F 59.0 °F 40% 29.87 in 10.0 mi SE 15.0 mph 23.0 mph N/A   Clear
4:53 PM 84.0 °F 84.4 °F 61.0 °F 46% 29.90 in 10.0 mi East 23.0 mph 29.9 mph N/A   Scattered Clouds
5:53 PM 80.1 °F 81.1 °F 61.0 °F 52% 29.91 in 10.0 mi SE 26.5 mph - N/A   Clear
6:53 PM 75.9 °F - 63.0 °F 64% 29.95 in 10.0 mi ESE 20.7 mph 27.6 mph N/A   Scattered Clouds
7:35 PM 62.6 °F - 60.8 °F 94% 30.21 in 1.8 mi NW 25.3 mph - 0.03 in Rain Heavy Rain
7:39 PM 60.8 °F - 60.8 °F 100% 30.21 in 0.8 mi NNW 15.0 mph 27.6 mph 0.17 in Rain Heavy Rain
7:48 PM 60.8 °F - 60.8 °F 100% 30.19 in 1.2 mi East 4.6 mph - 0.38 in Rain Heavy Rain
7:53 PM 61.0 °F - 60.1 °F 97% 30.04 in 2.0 mi East 3.5 mph - 0.43 in Rain Heavy Rain
8:02 PM 62.6 °F - 60.8 °F 94% 30.20 in 4.0 mi ENE 11.5 mph - 0.04 in Rain Light Rain
8:20 PM 62.6 °F - 60.8 °F 94% 30.20 in 2.0 mi SE 17.3 mph - 0.11 in Rain Rain
8:29 PM 62.6 °F - 60.8 °F 94% 30.18 in 7.0 mi SE 13.8 mph 23.0 mph 0.12 in Rain Light Rain
8:53 PM 64.0 °F - 61.0 °F 90% 30.07 in 10.0 mi SSE 13.8 mph 21.9 mph 0.12 in Rain Light Rain
9:08 PM 64.4 °F - 62.6 °F 94% 30.23 in 10.0 mi SW 12.7 mph - 0.00 in   Overcast
9:53 PM 64.0 °F - 61.0 °F 90% 30.09 in 10.0 mi SW 6.9 mph - 0.00 in   Overcast
10:38 PM 64.4 °F - 60.8 °F 88% 30.29 in 10.0 mi NW 10.4 mph - 0.00 in Rain , Thunderstorm Light Rain
10:53 PM 66.0 °F - 62.1 °F 87% 30.12 in 10.0 mi North 11.5 mph - 0.00 in Rain , Thunderstorm Light Rain
11:00 PM 66.2 °F - 62.6 °F 88% 30.28 in 10.0 mi North 11.5 mph - 0.00 in   Overcast
11:25 PM 66.2 °F - 62.6 °F 88% 30.27 in 10.0 mi NNE 8.1 mph - 0.00 in   Overcast
11:53 PM 66.0 °F - 63.0 °F 90% 30.09 in 10.0 mi NNW 10.4 mph - 0.00 in   Overcast